This is the latest recevied weather packets stored in our database for station/object LU8FCJ-5. If no packets are shown the sender has not sent any weather packets the latest 10 day(s).
| Time | Temp. | Humidity | Pressure | Rain* | Wind** | Luminosity | Snow |
|---|---|---|---|---|---|---|---|
| 1777491940 | 23.33° C | 28% | 1011.7 hPa | 0 mm | - | - | - |
| 1777491633 | 23.33° C | 29% | 1011.5 hPa | 0 mm | - | - | - |
| 1777491320 | 23.89° C | 29% | 1011.6 hPa | 0 mm | - | - | - |
| 1777491010 | 23.33° C | 29% | 1011.7 hPa | 0 mm | - | - | - |
| 1777490700 | 23.89° C | 29% | 1011.7 hPa | 0 mm | - | - | - |
| 1777490389 | 23.89° C | 29% | 1011.6 hPa | 0 mm | - | - | - |
| 1777490079 | 23.89° C | 29% | 1011.6 hPa | 0 mm | - | - | - |
| 1777489771 | 24.44° C | 29% | 1011.8 hPa | 0 mm | - | - | - |
| 1777489462 | 23.89° C | 29% | 1011.7 hPa | 0 mm | - | - | - |
| 1777489151 | 23.89° C | 29% | 1011.7 hPa | 0 mm | - | - | - |
| 1777488839 | 24.44° C | 29% | 1011.4 hPa | 0 mm | - | - | - |
| 1777488529 | 24.44° C | 28% | 1011.6 hPa | 0 mm | - | - | - |
| 1777488218 | 24.44° C | 31% | 1011.6 hPa | 0 mm | - | - | - |
| 1777487908 | 23.89° C | 30% | 1011.6 hPa | 0 mm | - | - | - |
| 1777487599 | 25° C | 31% | 1011.4 hPa | 0 mm | - | - | - |
| 1777487289 | 24.44° C | 30% | 1011.7 hPa | 0 mm | - | - | - |
| 1777486978 | 24.44° C | 30% | 1011.5 hPa | 0 mm | - | - | - |
| 1777486667 | 24.44° C | 30% | 1011.4 hPa | 0 mm | - | - | - |
| 1777486362 | 23.89° C | 30% | 1011.6 hPa | 0 mm | - | - | - |
| 1777486047 | 23.89° C | 30% | 1011.4 hPa | 0 mm | - | - | - |
| 1777485742 | 24.44° C | 31% | 1011.2 hPa | 0 mm | - | - | - |
| 1777485427 | 24.44° C | 31% | 1011.5 hPa | 0 mm | - | - | - |
| 1777485118 | 24.44° C | 32% | 1011.3 hPa | 0 mm | - | - | - |
| 1777484807 | 23.89° C | 32% | 1011.2 hPa | 0 mm | - | - | - |
| 1777484496 | 23.89° C | 31% | 1011.3 hPa | 0 mm | - | - | - |
* Rain latest hour (hover to see other rain measurements)
** Current wind speed in m/s (hover to see current wind gust speed)